Pagina principale
METAR-TAF:

METAR-TAF

Aeroporti :

Bad Vöslau, Austria

latitudine: 47-57-52N, longitudine: 016-15-34E, altezza: 233 m

Osservazione

Il bollettino è stato emesso 59 minuti fa, alle 12:00 UTC
Vento 12 kt da sud/sud-est
Temperature 26°C
Umidità 37%
Pressione
Visibilità 10 km o più
nessuna nube inferiore a 1500 m e nessun cumulonembo

METAR: LOAV 191200Z 15012KT CAVOK 26/10

Ora: 14:59 (12:59 UTC)

Previsione

Il bollettino è stato emesso 1 ora e 34 minuti fa, alle 11:25 UTC
Previsione valida dal 19 alle 12 UTC al 19 alle 21 UTC
Vento 13 kt da sud/sud-est
Visibilità 10 km o più
nessuna nube inferiore a 1500 m e nessun cumulonembo
Evoluzione graduale
dal 19 alle 18 UTC al 19 alle 20 UTC
Vento 3 kt da direzioni variabili

TAF: LOAV 191125Z 1912/1921 16013KT CAVOK BECMG 1918/1920 VRB03KT

Osservazioni e previsioni meteorologiche di più di 4000 aeroporti (messaggi METAR e TAF).

Le stazioni disponibili sono rappresentate dai dischi gialli e rossi sulla carta.

Puntare il mouse per vedere il nome della stazione.

Clicca sopra per visualizzare le osservazioni e previsioni meteorologiche.

Per cambiare la mappa : fare clic sui pulsanti verdi con una croce nera per ingrandire, il pulsante verde con un trattino per diminuire, o sulla freccia verde per le mappe adiacenti.


METAR-TAF: